Caldwell, ID

6:15 AM MDT on August 17, 2017 (GMT -0600)
Caldwell Industrial

Weather History for KEUL - September, 2012

Change the Weather History Date:

Friday, September 28, 2012

  Actual Average (KBOI) Record (KBOI)
Temperature  
Mean Temperature 62 °F -  
Max Temperature 78 °F 73 °F 95 °F (1963)
Min Temperature 46 °F 44 °F 30 °F (1881)
Degree Days  
Heating Degree Days 3    
Growing Degree Days 12 (Base 50)    
Moisture  
Dew Point 42 °F    
Average Humidity 52    
Maximum Humidity 71    
Minimum Humidity 30    
Precipitation  
Precipitation 0.00 in - - ()
Sea Level Pressure  
Sea Level Pressure 30.00 in    
Wind  
Wind Speed 3 mph (North)    
Max Wind Speed 16 mph    
Max Gust Speed 20 mph    
Visibility 10 miles    
Events      
Averages and records for this station are not official NWS values.
T = Trace of Precipitation, MM = Missing Value Source: NWS Daily Summary

Daily Weather History Graph

Daily Weather History Graph

Search for Another Location

Airport or City:

Trip Planner

Search our weather history database for the weather conditions in past years. The results will help you decide how hot, cold, wet, or windy it might be!

Date:

Astronomy

Sep. 28, 2012 Rise Set
Actual Time 7:41 AM MDT 7:31 PM MDT
Civil Twilight 7:12 AM MDT 8:00 PM MDT
Nautical Twilight 6:39 AM MDT 8:33 PM MDT
Astronomical Twilight 6:05 AM MDT 9:07 PM MDT
Moon 6:36 PM MDT (9/28) 6:15 AM MDT (9/28)
Length of Visible Light 12h 47m
Length of Day
11h 50m
Waxing Gibbous, 98% of the Moon is Illuminated
Sep 28
Waxing Gibbous
Sep 29
Full
Oct 8
Last Quarter
Oct 15
New
Oct 21
First Quarter

Hourly Weather History & Observations

Time (MDT) Temp. Windchill Dew Point Humidity Pressure Visibility Wind Dir Wind Speed Gust Speed Precip Events Conditions
12:15 AM 53.6 °F - 42.8 °F 67% 29.99 in 10.0 mi Calm Calm - N/A   Clear
12:35 AM 51.8 °F - 42.8 °F 71% 29.99 in 10.0 mi Calm Calm - N/A   Clear
12:55 AM 51.8 °F - 42.8 °F 71% 30.00 in 10.0 mi East 3.5 mph - N/A   Clear
1:15 AM 51.8 °F - 41.0 °F 67% 30.00 in 10.0 mi Calm Calm - N/A   Clear
1:35 AM 50.0 °F - 39.2 °F 66% 30.00 in 10.0 mi Calm Calm - N/A   Mostly Cloudy
1:55 AM 50.0 °F - 39.2 °F 66% 30.00 in 10.0 mi Calm Calm - N/A   Overcast
2:15 AM 50.0 °F - 41.0 °F 71% 30.00 in 10.0 mi Calm Calm - N/A   Scattered Clouds
2:35 AM 48.2 °F - 39.2 °F 71% 30.01 in 10.0 mi Calm Calm - N/A   Clear
2:55 AM 50.0 °F - 41.0 °F 71% 30.00 in 10.0 mi ESE 4.6 mph - N/A   Mostly Cloudy
3:15 AM 50.0 °F - 39.2 °F 66% 30.00 in 10.0 mi Calm Calm - N/A   Overcast
3:35 AM 48.2 °F - 39.2 °F 71% 30.01 in 10.0 mi Calm Calm - N/A   Overcast
3:55 AM 48.2 °F - 39.2 °F 71% 30.01 in 10.0 mi Calm Calm - N/A   Scattered Clouds
4:16 AM 48.2 °F - 39.2 °F 71% 30.01 in 10.0 mi Calm Calm - N/A   Scattered Clouds
4:35 AM 48.2 °F - 39.2 °F 71% 30.02 in 10.0 mi Calm Calm - N/A   Mostly Cloudy
4:55 AM 48.2 °F - 37.4 °F 66% 30.02 in 10.0 mi SE 3.5 mph - N/A   Partly Cloudy
5:15 AM 48.2 °F - 37.4 °F 66% 30.01 in 10.0 mi SSE 4.6 mph - N/A   Clear
5:55 AM 48.2 °F - 37.4 °F 66% 30.02 in 10.0 mi Calm Calm - N/A   Clear
6:15 AM 46.4 °F 45.2 °F 35.6 °F 66% 30.02 in 10.0 mi NE 3.5 mph - N/A   Clear
6:35 AM 46.4 °F 43.5 °F 37.4 °F 71% 30.02 in 10.0 mi ENE 5.8 mph - N/A   Clear
6:55 AM 46.4 °F 44.3 °F 35.6 °F 66% 30.02 in 10.0 mi East 4.6 mph - N/A   Clear
7:15 AM 46.4 °F 43.5 °F 35.6 °F 66% 30.02 in 10.0 mi East 5.8 mph - N/A   Clear
7:35 AM 46.4 °F 43.5 °F 33.8 °F 62% 30.02 in 10.0 mi East 5.8 mph - N/A   Clear
8:15 AM 48.2 °F - 37.4 °F 66% 30.03 in 10.0 mi SE 3.5 mph - N/A   Clear
8:55 AM 53.6 °F - 39.2 °F 58% 30.04 in 10.0 mi West 5.8 mph - N/A   Clear
9:15 AM 55.4 °F - 39.2 °F 54% 30.05 in 10.0 mi Calm Calm - N/A   Clear
9:35 AM 57.2 °F - 41.0 °F 55% 30.05 in 10.0 mi Calm Calm - N/A   Clear
9:56 AM 59.0 °F - 41.0 °F 51% 30.06 in 8.0 mi East 3.5 mph - N/A   Clear
10:35 AM 60.8 °F - 42.8 °F 52% 30.06 in 10.0 mi NE 3.5 mph - N/A   Clear
11:15 AM 64.4 °F - 41.0 °F 42% 30.06 in 10.0 mi Calm Calm - N/A   Clear
11:35 AM 66.2 °F - 42.8 °F 43% 30.05 in 10.0 mi Calm Calm - N/A   Clear
11:55 AM 68.0 °F - 42.8 °F 40% 30.05 in 10.0 mi Calm Calm - N/A   Clear
12:15 PM 69.8 °F - 41.0 °F 35% 30.04 in 10.0 mi Calm Calm - N/A   Clear
12:35 PM 69.8 °F - 41.0 °F 35% 30.04 in 10.0 mi Calm Calm - N/A   Clear
12:55 PM 69.8 °F - 41.0 °F 35% 30.03 in 10.0 mi Calm Calm - N/A   Clear
1:15 PM 71.6 °F - 42.8 °F 35% 30.02 in 9.0 mi East 3.5 mph - N/A   Clear
2:35 PM 78.8 °F - 44.6 °F 30% 30.01 in 10.0 mi NW 12.7 mph 19.6 mph N/A   Scattered Clouds
2:55 PM 75.2 °F - 44.6 °F 34% 30.00 in 9.0 mi NW 13.8 mph - N/A   Partly Cloudy
3:15 PM 75.2 °F - 44.6 °F 34% 29.99 in 10.0 mi North 10.4 mph - N/A   Clear
3:35 PM 77.0 °F - 44.6 °F 32% 29.99 in 10.0 mi North 16.1 mph - N/A   Clear
3:55 PM 75.2 °F - 44.6 °F 34% 29.99 in 3.0 mi North 10.4 mph - N/A   Partly Cloudy
4:15 PM 73.4 °F - 42.8 °F 33% 29.99 in 2.0 mi North 8.1 mph - N/A   Mostly Cloudy
4:55 PM 73.4 °F - 42.8 °F 33% 29.99 in 10.0 mi NW 9.2 mph - N/A   Clear
5:15 PM 73.4 °F - 42.8 °F 33% 29.98 in 10.0 mi WNW 6.9 mph - N/A   Clear
5:35 PM 73.4 °F - 42.8 °F 33% 29.97 in 10.0 mi West 5.8 mph - N/A   Clear
5:55 PM 73.4 °F - 44.6 °F 36% 29.97 in 10.0 mi WSW 5.8 mph - N/A   Clear
6:35 PM 73.4 °F - 42.8 °F 33% 29.96 in 10.0 mi SW 6.9 mph - N/A   Clear
6:55 PM 71.6 °F - 44.6 °F 38% 29.95 in 9.0 mi SSW 5.8 mph - N/A   Clear
7:15 PM 71.6 °F - 44.6 °F 38% 29.96 in 10.0 mi West 4.6 mph - N/A   Clear
7:55 PM 69.8 °F - 46.4 °F 43% 29.94 in 10.0 mi SSW 8.1 mph - N/A   Clear
8:15 PM 69.8 °F - 44.6 °F 40% 29.95 in 10.0 mi SW 4.6 mph - N/A   Clear
8:35 PM 69.8 °F - 44.6 °F 40% 29.96 in 10.0 mi NW 4.6 mph - N/A   Clear
8:55 PM 66.2 °F - 44.6 °F 46% 29.96 in 10.0 mi NNW 4.6 mph - N/A   Clear
9:15 PM 66.2 °F - 44.6 °F 46% 29.97 in 10.0 mi North 4.6 mph - N/A   Clear
9:35 PM 64.4 °F - 46.4 °F 52% 29.98 in 10.0 mi North 3.5 mph - N/A   Clear
9:55 PM 64.4 °F - 46.4 °F 52% 29.99 in 10.0 mi NNE 4.6 mph - N/A   Clear
10:55 PM 62.6 °F - 44.6 °F 52% 30.00 in 7.0 mi Calm Calm - N/A   Clear
11:35 PM 62.6 °F - 46.4 °F 55% 30.00 in 10.0 mi Calm Calm - N/A   Clear